timestamp,surface_pressure_avg,surface_temp_avg,battery_voltage,lat,long
2017-09-29 00:00:00+00:00,279.2581,13.8,12.89,47.84626,-54.09684
2017-09-29 00:10:00+00:00,275.9197,13.8,12.81,47.84626,-54.09684
2017-09-29 00:20:00+00:00,267.0298,13.8,12.89,47.84626,-54.09684
2017-09-29 00:30:00+00:00,259.3931,13.8,12.89,47.84626,-54.09684
2017-09-29 00:40:00+00:00,261.2581,13.81,12.89,47.84626,-54.09684
2017-09-29 00:50:00+00:00,264.3764,13.82,12.89,47.84626,-54.09684
2017-09-29 01:00:00+00:00,262.9498,13.83,12.89,47.84626,-54.09684
2017-09-29 01:10:00+00:00,265.0314,13.81,12.81,47.84626,-54.09684
2017-09-29 01:20:00+00:00,276.938,13.84,12.89,47.84626,-54.09684
2017-09-29 01:30:00+00:00,275.5831,13.84,12.89,47.84626,-54.09684
2017-09-29 01:40:00+00:00,270.9431,13.86,12.89,47.84626,-54.09684
2017-09-29 01:50:00+00:00,275.5781,13.87,12.89,47.84626,-54.09684
2017-09-29 02:00:00+00:00,280.4431,13.87,12.89,47.84626,-54.09684
2017-09-29 02:10:00+00:00,273.6797,13.87,12.81,47.84626,-54.09684
2017-09-29 02:20:00+00:00,272.1397,13.88,12.89,47.84626,-54.09684
2017-09-29 02:30:00+00:00,276.4647,13.88,12.89,47.84626,-54.09684
2017-09-29 02:40:00+00:00,278.6381,13.88,12.89,47.84626,-54.09684
2017-09-29 02:50:00+00:00,281.0681,13.87,12.89,47.84626,-54.09684
2017-09-29 03:00:00+00:00,283.5831,13.86,12.89,47.84626,-54.09684
2017-09-29 03:10:00+00:00,286.718,13.86,12.81,47.84626,-54.09684
2017-09-29 03:20:00+00:00,291.2514,13.87,12.89,47.84626,-54.09684
2017-09-29 03:30:00+00:00,298.2547,13.88,12.89,47.84626,-54.09684
2017-09-29 03:40:00+00:00,300.8147,13.88,12.89,47.84626,-54.09684
2017-09-29 03:50:00+00:00,303.938,13.88,12.89,47.84626,-54.09684
2017-09-29 04:00:00+00:00,316.978,13.87,12.89,47.84626,-54.09684
2017-09-29 04:10:00+00:00,307.3079,13.87,12.81,47.84626,-54.09684
2017-09-29 04:20:00+00:00,294.0614,13.89,12.89,47.84626,-54.09684
2017-09-29 04:30:00+00:00,293.4164,13.89,12.89,47.84626,-54.09684
2017-09-29 04:40:00+00:00,308.418,13.89,12.89,47.84626,-54.09684
2017-09-29 04:50:00+00:00,310.1146,13.9,12.89,47.84626,-54.09684
2017-09-29 05:00:00+00:00,298.983,13.89,12.89,47.84626,-54.09684
2017-09-29 05:10:00+00:00,311.238,13.9,12.81,47.84626,-54.09684
2017-09-29 05:20:00+00:00,331.4313,13.9,12.89,47.84626,-54.09684
2017-09-29 05:30:00+00:00,319.6914,13.9,12.89,47.84626,-54.09684
2017-09-29 05:40:00+00:00,315.2947,13.9,12.89,47.84626,-54.09684
2017-09-29 05:50:00+00:00,332.7346,13.9,12.89,47.84626,-54.09684
2017-09-29 06:00:00+00:00,341.043,13.9,12.89,47.84626,-54.09684
2017-09-29 06:10:00+00:00,330.9764,13.9,12.81,47.84626,-54.09684
2017-09-29 06:20:00+00:00,331.3913,13.9,12.89,47.84626,-54.09684
2017-09-29 06:30:00+00:00,339.2563,13.9,12.89,47.84626,-54.09684
2017-09-29 06:40:00+00:00,328.6296,13.9,12.89,47.84626,-54.09684
2017-09-29 06:50:00+00:00,318.6913,13.9,12.89,47.84626,-54.09684
2017-09-29 07:00:00+00:00,318.4446,13.9,12.89,47.84626,-54.09684
2017-09-29 07:10:00+00:00,323.1446,13.9,12.81,47.84626,-54.09684
2017-09-29 07:20:00+00:00,329.1747,13.9,12.89,47.84626,-54.09684
2017-09-29 07:30:00+00:00,313.958,13.9,12.89,47.84626,-54.09684
2017-09-29 07:40:00+00:00,310.0197,13.9,12.89,47.84626,-54.09684
2017-09-29 07:50:00+00:00,305.368,13.9,12.89,47.84626,-54.09684
2017-09-29 08:00:00+00:00,299.463,13.9,12.89,47.84626,-54.09684
2017-09-29 08:10:00+00:00,297.4446,13.9,12.81,47.84626,-54.09684
2017-09-29 08:20:00+00:00,299.178,13.9,12.89,47.84626,-54.09684
2017-09-29 08:30:00+00:00,295.863,13.9,12.89,47.84626,-54.09684
2017-09-29 08:40:00+00:00,286.9264,13.9,12.89,47.84626,-54.09684
2017-09-29 08:50:00+00:00,274.4514,13.9,12.89,47.84626,-54.09684
2017-09-29 09:00:00+00:00,268.3548,13.9,12.89,47.84626,-54.09684
2017-09-29 09:10:00+00:00,267.7814,13.9,12.81,47.84626,-54.09684
2017-09-29 09:20:00+00:00,265.2764,13.9,12.89,47.84626,-54.09684
2017-09-29 09:30:00+00:00,257.4564,13.9,12.89,47.84626,-54.09684
2017-09-29 09:40:00+00:00,247.4315,13.9,12.89,47.84626,-54.09684
2017-09-29 09:50:00+00:00,252.2231,13.9,12.89,47.84626,-54.09684
2017-09-29 10:00:00+00:00,254.5331,13.9,12.89,47.84626,-54.09684
2017-09-29 10:10:00+00:00,259.8681,13.9,12.81,47.84626,-54.09684
2017-09-29 10:20:00+00:00,253.8814,13.89,12.89,47.84626,-54.09684
2017-09-29 10:30:00+00:00,253.6097,13.9,12.89,47.84626,-54.09684
2017-09-29 10:40:00+00:00,258.6264,13.9,12.89,47.84626,-54.09684
2017-09-29 10:50:00+00:00,255.6697,13.9,12.89,47.84626,-54.09684
2017-09-29 11:00:00+00:00,257.1731,13.9,12.89,47.84626,-54.09684
2017-09-29 11:10:00+00:00,255.7014,13.9,12.81,47.84626,-54.09684
2017-09-29 11:20:00+00:00,248.178,13.9,12.97,47.84626,-54.09684
2017-09-29 11:30:00+00:00,242.6914,13.9,13.05,47.84626,-54.09684
2017-09-29 11:40:00+00:00,251.5481,13.9,13.13,47.84626,-54.09684
2017-09-29 11:50:00+00:00,251.9348,13.9,13.13,47.84626,-54.09684
2017-09-29 12:00:00+00:00,252.6564,13.9,13.21,47.84626,-54.09684
2017-09-29 12:10:00+00:00,254.6764,13.9,13.13,47.84626,-54.09684
2017-09-29 12:20:00+00:00,259.5547,13.9,13.68,47.84626,-54.09684
2017-09-29 12:30:00+00:00,251.8014,13.9,13.92,47.84626,-54.09684
2017-09-29 12:40:00+00:00,258.2014,13.9,13.53,47.84626,-54.09684
2017-09-29 12:50:00+00:00,268.9981,13.9,13.44,47.84626,-54.09684
2017-09-29 13:00:00+00:00,265.863,13.9,13.44,47.84626,-54.09684
2017-09-29 13:10:00+00:00,259.2231,13.9,13.44,47.84626,-54.09684
2017-09-29 13:20:00+00:00,268.9097,13.9,13.44,47.84626,-54.09684
2017-09-29 13:30:00+00:00,275.4831,13.9,13.53,47.84626,-54.09684
2017-09-29 13:40:00+00:00,264.5448,13.9,13.53,47.84626,-54.09684
2017-09-29 13:50:00+00:00,254.8297,13.96,13.68,47.84626,-54.09684
2017-09-29 14:00:00+00:00,258.0548,13.9,13.44,47.84626,-54.09684
2017-09-29 14:10:00+00:00,259.4131,13.9,13.37,47.84626,-54.09684
2017-09-29 14:20:00+00:00,262.1164,13.9,13.53,47.84626,-54.09684
2017-09-29 14:30:00+00:00,271.9331,13.9,13.44,47.84626,-54.09684
2017-09-29 14:40:00+00:00,277.9998,13.94,13.44,47.84626,-54.09684
2017-09-29 14:50:00+00:00,283.9413,13.9,13.53,47.84626,-54.09684
2017-09-29 15:00:00+00:00,287.5597,13.9,13.6,47.84626,-54.09684
2017-09-29 15:10:00+00:00,291.5447,13.9,13.6,47.84626,-54.09684
2017-09-29 15:20:00+00:00,292.283,13.92,13.44,47.84626,-54.09684
2017-09-29 15:30:00+00:00,298.3081,13.94,13.68,47.84626,-54.09684
2017-09-29 15:40:00+00:00,298.5131,13.97,13.53,47.84626,-54.09684
2017-09-29 15:50:00+00:00,300.8464,13.97,13.68,47.84626,-54.09684
2017-09-29 16:00:00+00:00,302.6246,13.99,13.68,47.84626,-54.09684
2017-09-29 16:10:00+00:00,310.3314,13.94,13.76,47.84626,-54.09684
2017-09-29 16:20:00+00:00,315.5314,13.92,13.76,47.84626,-54.09684
2017-09-29 16:30:00+00:00,322.2797,13.9,13.84,47.84626,-54.09684
2017-09-29 16:40:00+00:00,325.253,13.97,13.68,47.84626,-54.09684
2017-09-29 16:50:00+00:00,333.168,14.0,13.44,47.84626,-54.09684
2017-09-29 17:00:00+00:00,340.0496,14.0,13.6,47.84626,-54.09684
2017-09-29 17:10:00+00:00,339.4596,14.0,13.53,47.84626,-54.09684
2017-09-29 17:20:00+00:00,329.7363,14.0,13.6,47.84626,-54.09684
2017-09-29 17:30:00+00:00,325.6363,14.0,13.44,47.84626,-54.09684
2017-09-29 17:40:00+00:00,332.163,14.0,13.84,47.84626,-54.09684
2017-09-29 17:50:00+00:00,336.0697,14.0,13.68,47.84626,-54.09684
2017-09-29 18:00:00+00:00,325.6179,14.1,13.44,47.84626,-54.09684
2017-09-29 18:10:00+00:00,327.5197,14.1,13.6,47.84626,-54.09684
2017-09-29 18:20:00+00:00,344.053,14.1,13.84,47.84626,-54.09684
2017-09-29 18:30:00+00:00,349.3996,14.1,13.84,47.84626,-54.09684
2017-09-29 18:40:00+00:00,333.483,14.13,13.76,47.84626,-54.09684
2017-09-29 18:50:00+00:00,336.4797,14.1,13.68,47.84626,-54.09684
2017-09-29 19:00:00+00:00,352.2263,14.1,13.53,47.84626,-54.09684
2017-09-29 19:10:00+00:00,348.5363,14.1,13.37,47.84626,-54.09684
2017-09-29 19:20:00+00:00,333.7813,14.14,13.44,47.84626,-54.09684
2017-09-29 19:30:00+00:00,339.1464,14.11,13.44,47.84626,-54.09684
2017-09-29 19:40:00+00:00,346.7463,14.15,13.37,47.84626,-54.09684
2017-09-29 19:50:00+00:00,336.1512,14.1,13.37,47.84626,-54.09684
2017-09-29 20:00:00+00:00,323.533,14.1,13.29,47.84626,-54.09684
2017-09-29 20:10:00+00:00,326.153,14.1,13.21,47.84626,-54.09684
2017-09-29 20:20:00+00:00,324.998,14.1,13.29,47.84626,-54.09684
2017-09-29 20:30:00+00:00,313.6647,14.1,13.29,47.84626,-54.09684
2017-09-29 20:40:00+00:00,310.0063,14.1,13.29,47.84626,-54.09684
2017-09-29 20:50:00+00:00,310.038,14.1,13.21,47.84626,-54.09684
2017-09-29 21:00:00+00:00,309.0314,14.1,13.13,47.84626,-54.09684
2017-09-29 21:10:00+00:00,300.6264,14.1,13.05,47.84626,-54.09684
2017-09-29 21:20:00+00:00,294.993,14.1,13.13,47.84626,-54.09684
2017-09-29 21:30:00+00:00,287.798,14.1,13.13,47.84626,-54.09684
2017-09-29 21:40:00+00:00,292.0464,14.1,13.13,47.84626,-54.09684
2017-09-29 21:50:00+00:00,291.8931,14.1,13.13,47.84626,-54.09684
2017-09-29 22:00:00+00:00,287.073,14.07,13.05,47.84626,-54.09684
2017-09-29 22:10:00+00:00,279.1547,14.0,12.97,47.84626,-54.09684
2017-09-29 22:20:00+00:00,285.0814,14.0,13.05,47.84626,-54.09684
2017-09-29 22:30:00+00:00,286.0314,14.0,13.05,47.84626,-54.09684
2017-09-29 22:40:00+00:00,278.0947,14.0,13.05,47.84626,-54.09684
2017-09-29 22:50:00+00:00,272.4247,13.93,13.05,47.84626,-54.09684
2017-09-29 23:00:00+00:00,278.3914,13.99,13.05,47.84626,-54.09684
2017-09-29 23:10:00+00:00,278.2031,14.0,12.97,47.84626,-54.09684
2017-09-29 23:20:00+00:00,271.1514,14.0,13.05,47.84626,-54.09684
2017-09-29 23:30:00+00:00,270.0081,14.0,13.05,47.84626,-54.09684
2017-09-29 23:40:00+00:00,272.4998,14.0,13.05,47.84626,-54.09684
2017-09-29 23:50:00+00:00,265.7464,13.99,13.05,47.84626,-54.09684
